SAULDORF Weather Reports


time (UTC)temp
C
wind
direction
speed
KPH
gust
KPH
rain 1hr
cm
rain 24hr
cm
rain mn
cm
humidity
%
barometer
mb
20260507170210 15 35 16.1 0.0 0.00 0.00 0.43 64 1014.5
20260507163209 15 24 19.3 0.0 0.00 0.00 0.43 63 1014.5
20260507160211 15 5 16.1 0.0 0.00 0.00 0.43 67 1014.5
20260507153210 14 348 17.7 0.0 0.00 0.00 0.43 70 1014.5
20260507150210 15 313 17.7 0.0 0.00 0.00 0.43 67 1014.5
20260507143212 15 42 14.5 0.0 0.00 0.00 0.43 72 1014.4
20260507140210 13 13 14.5 0.0 0.00 0.00 0.43 78 1014.5
20260507133210 13 30 14.5 0.0 0.00 0.00 0.43 83 1014.7
20260507130210 12 315 17.7 0.0 0.00 0.00 0.43 90 1014.7
20260507123210 11 321 11.3 0.0 0.00 0.00 0.43 89 1014.8
20260507120211 11 340 14.5 0.0 0.00 0.00 0.43 92 1014.5
20260507113210 10 279 11.3 0.0 0.00 0.00 0.43 91 1014.6
20260507110210 10 286 8.0 0.0 0.00 0.00 0.38 88 1014.6
20260507103216 11 225 16.1 0.0 0.00 0.00 0.15 89 1014.4
20260507100212 10 199 9.7 0.0 0.00 0.00 0.15 91 1014.4
20260507093211 10 211 14.5 0.0 0.00 0.00 0.15 88 1014.2
20260507090211 10 232 17.7 0.0 0.00 0.00 0.15 89 1013.9
20260507083212 10 223 16.1 0.0 0.00 0.00 0.15 93 1013.8
20260507080211 9 217 22.5 0.0 0.00 0.00 0.15 96 1013.6
20260507073212 8 247 20.9 0.0 0.00 0.00 0.15 97 1013.5
20260507070212 8 223 19.3 0.0 0.00 0.00 0.15 97 1013.3
20260507063211 7 236 22.5 0.0 0.00 0.00 0.15 97 1013.2
20260507060211 7 230 22.5 0.0 0.00 0.00 0.13 97 1012.9
20260507053211 7 229 20.9 0.0 0.00 0.00 0.13 97 1012.6
20260507050213 6 228 19.3 0.0 0.00 0.00 0.10 97 1012.2
20260507043211 6 237 20.9 0.0 0.00 0.00 0.05 97 1012.0
20260507040216 6 268 17.7 0.0 0.00 0.00 0.00 97 1011.7
20260507033211 6 241 22.5 0.0 0.00 0.00 0.00 96 1011.5
20260507030211 6 220 17.7 0.0 0.00 0.00 0.00 96 1011.5
20260507023211 6 215 17.7 0.0 0.00 0.00 0.00 96 1011.2
20260507020211 6 240 20.9 0.0 0.00 0.00 0.00 96 1011.0
20260507013212 6 236 12.9 0.0 0.00 0.00 0.00 96 1011.2
20260507010211 5 211 11.3 0.0 0.00 0.00 0.00 95 1011.0
20260507003209 5 214 9.7 0.0 0.00 0.00 0.00 95 1010.8
20260507000209 6 227 14.5 0.0 0.00 0.00 0.00 94 1010.7
20260506233209 6 247 19.3 0.0 0.00 0.00 0.00 95 1010.5
20260506230209 6 236 17.7 0.0 0.00 0.00 0.00 95 1010.5
20260506223209 6 234 16.1 0.0 0.00 0.00 0.00 95 1010.4
20260506220209 7 253 17.7 0.0 0.00 0.00 0.00 95 1010.1
20260506213209 7 221 9.7 0.0 0.00 0.00 0.74 95 1010.3
20260506210210 7 240 20.9 0.0 0.00 0.00 0.74 94 1010.2
20260506203210 7 244 24.1 0.0 0.00 0.00 0.74 94 1009.8
20260506200210 8 225 19.3 0.0 0.00 0.00 0.74 94 1010.0
20260506193215 7 223 24.1 0.0 0.00 0.00 0.74 93 1009.7
20260506190211 8 217 24.1 0.0 0.00 0.00 0.74 92 1009.2
20260506183209 8 221 24.1 0.0 0.00 0.00 0.74 90 1008.9
20260506180216 8 262 24.1 0.0 0.00 0.00 0.74 90 1008.7
20260506173210 8 244 32.2 0.0 0.00 0.00 0.74 90 1008.2